Tracking 27422 objects as of 30-May-2023
HD Live streaming from Space Station
objects crossing your sky now

STARLINK-5273

Track STARLINK-5273 now!
10-day predictions
STARLINK-5273 is classified as:


NORAD ID: 54162
Int'l Code: 2022-141F
Perigee: 546.1 km
Apogee: 547.6 km
Inclination: 53.2 °
Period: 95.4 minutes
Semi major axis: 6917 km
RCS: Unknown
Launch date: October 28, 2022
Source: United States (US)
Launch site: AIR FORCE WESTERN TEST RANGE (AFWTR)
Your satellite tracking list
Your tracking list is empty




NASA's NSSDC Master Catalog

Two Line Element Set (TLE):
1 54162U 22141F   23150.46557266  .00000439  00000-0  45664-4 0  9995
2 54162  53.2165 247.1656 0001079  71.6683 288.4427 15.08839452 32602
Source of the keplerian elements: AFSPC